Canton, GA

6:33 PM EDT on October 22, 2017 (GMT -0400)
Canton

Weather History for KCNI - May, 2012

Change the Weather History Date:

Thursday, May 10, 2012

  Actual Average (KMGE) Record (KMGE)
Temperature  
Mean Temperature 58 °F -  
Max Temperature 71 °F 76 °F 88 °F (2011)
Min Temperature 46 °F 56 °F 46 °F (1997)
Degree Days  
Heating Degree Days 6    
Growing Degree Days 8 (Base 50)    
Moisture  
Dew Point 50 °F    
Average Humidity 74    
Maximum Humidity 100    
Minimum Humidity 43    
Precipitation  
Precipitation 0.00 in - - ()
Sea Level Pressure  
Sea Level Pressure 29.93 in    
Wind  
Wind Speed 2 mph ()    
Max Wind Speed 10 mph    
Max Gust Speed 17 mph    
Visibility 9.7 miles    
Events      
Averages and records for this station are not official NWS values.
T = Trace of Precipitation, MM = Missing Value Source: Averaged Metar Reports

Daily Weather History Graph

Daily Weather History Graph

Search for Another Location

Airport or City:

Trip Planner

Search our weather history database for the weather conditions in past years. The results will help you decide how hot, cold, wet, or windy it might be!

Date:

Astronomy

May. 10, 2012 Rise Set
Actual Time 6:39 AM EDT 8:29 PM EDT
Civil Twilight 6:11 AM EDT 8:56 PM EDT
Nautical Twilight 5:38 AM EDT 9:30 PM EDT
Astronomical Twilight 5:03 AM EDT 10:05 PM EDT
Moon 12:26 AM EDT (5/10) 11:02 AM EDT (5/10)
Length of Visible Light 14h 45m
Length of Day
13h 50m
Waning Gibbous, 73% of the Moon is Illuminated
May 10
Waning Gibbous
May 12
Last Quarter
May 20
New
May 28
First Quarter
Jun 4
Full

Hourly Weather History & Observations

Time (EDT) Temp. Dew Point Humidity Pressure Visibility Wind Dir Wind Speed Gust Speed Precip Events Conditions
12:15 AM 53.6 °F 53.6 °F 100% 29.89 in 10.0 mi Calm Calm - N/A   Clear
12:35 AM 53.6 °F 53.6 °F 100% 29.89 in 10.0 mi Calm Calm - N/A   Clear
12:55 AM 55.4 °F 53.6 °F 94% 29.89 in 10.0 mi Calm Calm - N/A   Clear
1:15 AM 53.6 °F 53.6 °F 100% 29.89 in 10.0 mi Calm Calm - N/A   Clear
1:35 AM 51.8 °F 51.8 °F 100% 29.88 in 10.0 mi Calm Calm - N/A   Clear
1:55 AM 51.8 °F 51.8 °F 100% 29.88 in 10.0 mi Calm Calm - N/A   Clear
2:15 AM 51.8 °F 51.8 °F 100% 29.88 in 10.0 mi Calm Calm - N/A   Clear
2:35 AM 50.0 °F 50.0 °F 100% 29.88 in 7.0 mi Calm Calm - N/A   Clear
2:55 AM 50.0 °F 50.0 °F 100% 29.88 in 7.0 mi Calm Calm - N/A   Clear
3:15 AM 50.0 °F 50.0 °F 100% 29.87 in 7.0 mi Calm Calm - N/A   Clear
3:35 AM 48.2 °F 48.2 °F 100% 29.87 in 7.0 mi NNW 3.5 mph - N/A   Clear
3:55 AM 48.2 °F 48.2 °F 100% 29.87 in 7.0 mi Calm Calm - N/A   Clear
4:15 AM 46.4 °F 46.4 °F 100% 29.87 in 7.0 mi Calm Calm - N/A   Clear
4:35 AM 48.2 °F 48.2 °F 100% 29.87 in 10.0 mi NW 3.5 mph - N/A   Clear
4:55 AM 48.2 °F 48.2 °F 100% 29.87 in 10.0 mi NW 3.5 mph - N/A   Clear
5:15 AM 46.4 °F 46.4 °F 100% 29.87 in 7.0 mi Calm Calm - N/A   Clear
5:35 AM 46.4 °F 46.4 °F 100% 29.88 in 10.0 mi Calm Calm - N/A   Clear
5:55 AM 50.0 °F 50.0 °F 100% 29.88 in 10.0 mi Calm Calm - N/A   Clear
6:15 AM 50.0 °F 48.2 °F 94% 29.89 in 10.0 mi Calm Calm - N/A   Clear
6:35 AM 50.0 °F 46.4 °F 87% 29.89 in 10.0 mi Calm Calm - N/A   Clear
6:55 AM 48.2 °F 46.4 °F 93% 29.90 in 10.0 mi Calm Calm - N/A   Clear
7:15 AM 50.0 °F 48.2 °F 94% 29.91 in 10.0 mi Calm Calm - N/A   Clear
7:35 AM 50.0 °F 50.0 °F 100% 29.92 in 10.0 mi Calm Calm - N/A   Clear
7:55 AM 50.0 °F 50.0 °F 100% 29.93 in 10.0 mi Calm Calm - N/A   Clear
8:15 AM 53.6 °F 51.8 °F 94% 29.94 in 10.0 mi Calm Calm - N/A   Clear
8:35 AM 53.6 °F 51.8 °F 94% 29.94 in 10.0 mi Calm Calm - N/A   Clear
8:55 AM 55.4 °F 53.6 °F 94% 29.95 in 10.0 mi Calm Calm - N/A   Clear
9:15 AM 59.0 °F 53.6 °F 82% 29.95 in 10.0 mi Calm Calm - N/A   Clear
9:35 AM 60.8 °F 51.8 °F 72% 29.96 in 10.0 mi NW 3.5 mph - N/A   Clear
9:55 AM 60.8 °F 51.8 °F 72% 29.97 in 10.0 mi Calm Calm - N/A   Clear
10:15 AM 62.6 °F 51.8 °F 68% 29.96 in 10.0 mi WNW 3.5 mph - N/A   Clear
10:35 AM 64.4 °F 50.0 °F 59% 29.96 in 10.0 mi North 4.6 mph - N/A   Clear
10:55 AM 64.4 °F 51.8 °F 64% 29.97 in 10.0 mi NW 3.5 mph - N/A   Clear
11:15 AM 66.2 °F 51.8 °F 60% 29.97 in 10.0 mi North 4.6 mph - N/A   Clear
11:35 AM 66.2 °F 51.8 °F 60% 29.97 in 10.0 mi NNW 3.5 mph - N/A   Scattered Clouds
11:55 AM 68.0 °F 50.0 °F 52% 29.97 in 10.0 mi NW 4.6 mph - N/A   Mostly Cloudy
12:15 PM 64.4 °F 51.8 °F 64% 29.96 in 10.0 mi NW 5.8 mph - N/A   Mostly Cloudy
12:35 PM 68.0 °F 51.8 °F 56% 29.95 in 10.0 mi West 6.9 mph - N/A   Scattered Clouds
12:55 PM 68.0 °F 50.0 °F 52% 29.95 in 10.0 mi NW 3.5 mph - N/A   Scattered Clouds
1:15 PM 69.8 °F 48.2 °F 46% 29.94 in 10.0 mi West 4.6 mph - N/A   Scattered Clouds
1:35 PM 69.8 °F 50.0 °F 49% 29.94 in 10.0 mi NW 4.6 mph - N/A   Scattered Clouds
1:55 PM 69.8 °F 50.0 °F 49% 29.93 in 10.0 mi NW 3.5 mph - N/A   Scattered Clouds
2:15 PM 69.8 °F 50.0 °F 49% 29.93 in 10.0 mi West 9.2 mph - N/A   Clear
2:35 PM 69.8 °F 46.4 °F 43% 29.93 in 10.0 mi WNW 9.2 mph - N/A   Clear
2:55 PM 69.8 °F 50.0 °F 49% 29.92 in 10.0 mi NW 8.1 mph - N/A   Clear
3:15 PM 71.6 °F 50.0 °F 46% 29.92 in 10.0 mi NW 9.2 mph - N/A   Clear
3:35 PM 71.6 °F 48.2 °F 43% 29.92 in 10.0 mi WNW 10.4 mph - N/A   Clear
3:55 PM 71.6 °F 50.0 °F 46% 29.92 in 10.0 mi WNW 6.9 mph 16.1 mph N/A   Clear
4:15 PM 71.6 °F 50.0 °F 46% 29.92 in 10.0 mi WNW 6.9 mph 17.3 mph N/A   Clear
4:35 PM 69.8 °F 48.2 °F 46% 29.92 in 10.0 mi WNW 5.8 mph 17.3 mph N/A   Clear
4:55 PM 69.8 °F 50.0 °F 49% 29.92 in 10.0 mi NW 6.9 mph - N/A   Clear
5:15 PM 69.8 °F 50.0 °F 49% 29.92 in 10.0 mi NW 5.8 mph - N/A   Clear
5:35 PM 69.8 °F 48.2 °F 46% 29.92 in 10.0 mi NW 9.2 mph 16.1 mph N/A   Clear
5:55 PM 69.8 °F 50.0 °F 49% 29.92 in 10.0 mi WNW 5.8 mph - N/A   Clear
6:15 PM 69.8 °F 50.0 °F 49% 29.92 in 10.0 mi NW 5.8 mph - N/A   Clear
6:35 PM 69.8 °F 50.0 °F 49% 29.93 in 10.0 mi NW 6.9 mph - N/A   Clear
6:55 PM 68.0 °F 50.0 °F 52% 29.93 in 10.0 mi NW 3.5 mph - N/A   Clear
7:15 PM 68.0 °F 50.0 °F 52% 29.94 in 10.0 mi NW 3.5 mph - N/A   Clear
7:35 PM 64.4 °F 50.0 °F 59% 29.94 in 10.0 mi WNW 3.5 mph - N/A   Clear
7:55 PM 64.4 °F 50.0 °F 59% 29.95 in 10.0 mi Calm Calm - N/A   Clear
8:15 PM 62.6 °F 50.0 °F 63% 29.95 in 10.0 mi NW 3.5 mph - N/A   Clear
8:35 PM 62.6 °F 51.8 °F 68% 29.95 in 10.0 mi Calm Calm - N/A   Clear
8:55 PM 60.8 °F 51.8 °F 72% 29.96 in 10.0 mi Calm Calm - N/A   Clear
9:15 PM 59.0 °F 51.8 °F 77% 29.96 in 10.0 mi NNW 3.5 mph - N/A   Clear
9:35 PM 59.0 °F 51.8 °F 77% 29.97 in 10.0 mi NW 3.5 mph - N/A   Clear
9:55 PM 59.0 °F 50.0 °F 72% 29.98 in 10.0 mi Calm Calm - N/A   Clear
10:15 PM 57.2 °F 50.0 °F 77% 29.99 in 10.0 mi Calm Calm - N/A   Clear
10:35 PM 55.4 °F 50.0 °F 82% 29.99 in 10.0 mi Calm Calm - N/A   Clear
10:55 PM 55.4 °F 48.2 °F 77% 29.99 in 10.0 mi Calm Calm - N/A   Clear
11:15 PM 53.6 °F 50.0 °F 88% 29.99 in 10.0 mi Calm Calm - N/A   Clear
11:35 PM 53.6 °F 50.0 °F 88% 29.99 in 10.0 mi Calm Calm - N/A   Clear
11:55 PM 53.6 °F 50.0 °F 88% 30.00 in 10.0 mi Calm Calm - N/A   Clear